Weather History for Thermopolis, WY

Change the Weather History Date:

Friday, November 23, 2012

  Actual Average (KWRL) Record (KWRL)
Temperature  
Mean Temperature -1 °C -3 °C  
Max Temperature 3 °C 4 °C 17 °C (1988)
Min Temperature -5 °C -11 °C -32 °C (1985)
Degree Days  
Heating Degree Days 35 39  
Month to date heating degree days 743  
Since 1 July heating degree days 1605  
Cooling Degree Days 0 0  
Month to date cooling degree days 0  
Year to date cooling degree days 535  
Moisture  
Dew Point -13 °C    
Average Humidity 43    
Maximum Humidity 54    
Minimum Humidity 28    
Precipitation  
Precipitation 0.0 mm 0.51 mm 0.74 mm (2002)
Month to date precipitation 0.29  
Year to date precipitation 7.28  
Sea Level Pressure  
Sea Level Pressure 1028.51 hPa    
Wind  
Wind Speed 22 km/h ()    
Max Wind Speed 37 km/h    
Max Gust Speed 46 km/h    
Visibility 16.1 kilometers    
Events      
T = Trace of Precipitation, MM = Missing Value Source: Averaged Metar Reports

Daily Weather History Graph

Daily Weather History Graph

Search for Another Location

Airport:

Trip Planner

Search our weather history database for the weather conditions in past years. The results will help you decide how hot, cold, wet, or windy it might be!

Date:

Astronomy

Nov. 23, 2012 Rise Set
Actual Time 7:17 AM MST 4:41 PM MST
Civil Twilight 6:45 AM MST 5:12 PM MST
Nautical Twilight 6:10 AM MST 5:48 PM MST
Astronomical Twilight 5:36 AM MST 6:22 PM MST
Moon 2:03 PM MST (11/23) 2:32 AM MST (11/23)
Length of Visible Light 10h 27m
Length of Day
9h 24m
Waxing Gibbous, 80% of the Moon is Illuminated
Nov 23
Waxing Gibbous
Nov 28
Full
Dec 6
Last Quarter
Dec 13
New
Dec 19
First Quarter

Hourly Weather History & Observations

Time (MST) Temp. Windchill Dew Point Humidity Pressure Visibility Wind Dir Wind Speed Gust Speed Precip Events Conditions
12:15 AM -5.0 °C -10.1 °C -13.0 °C 54% 1032.1 hPa 16.1 km SE 13.0 km/h / 3.6 m/s - N/A   Clear
12:35 AM -5.0 °C -10.1 °C -13.0 °C 54% 1032.1 hPa 16.1 km SE 13.0 km/h / 3.6 m/s - N/A   Clear
12:55 AM -5.0 °C -10.9 °C -13.0 °C 54% 1031.7 hPa 16.1 km SE 16.7 km/h / 4.6 m/s - N/A   Clear
1:15 AM -5.0 °C -11.3 °C -13.0 °C 54% 1031.7 hPa 16.1 km ESE 18.5 km/h / 5.1 m/s - N/A   Clear
1:35 AM -5.0 °C -11.3 °C -13.0 °C 54% 1031.7 hPa 16.1 km SE 18.5 km/h / 5.1 m/s - N/A   Clear
1:55 AM -5.0 °C -11.9 °C -13.0 °C 54% 1031.7 hPa 16.1 km SE 22.2 km/h / 6.2 m/s - N/A   Clear
2:35 AM -5.0 °C -12.9 °C -13.0 °C 54% 1031.4 hPa 16.1 km SE 29.6 km/h / 8.2 m/s - N/A   Clear
2:55 AM -5.0 °C -12.7 °C -13.0 °C 54% 1031.4 hPa 16.1 km SE 27.8 km/h / 7.7 m/s - N/A   Clear
3:15 AM -5.0 °C -13.6 °C -13.0 °C 54% 1030.7 hPa 16.1 km SE 35.2 km/h / 9.8 m/s - N/A   Clear
3:35 AM -5.0 °C -13.6 °C -13.0 °C 54% 1030.7 hPa 16.1 km SE 35.2 km/h / 9.8 m/s - N/A   Clear
3:55 AM -5.0 °C -13.8 °C -13.0 °C 54% 1030.4 hPa 16.1 km SE 37.0 km/h / 10.3 m/s - N/A   Clear
4:15 AM -5.0 °C -13.4 °C -13.0 °C 54% 1030.0 hPa 16.1 km SE 33.3 km/h / 9.3 m/s - N/A   Clear
4:35 AM -5.0 °C -13.1 °C -13.0 °C 54% 1030.0 hPa 16.1 km SE 31.5 km/h / 8.7 m/s - N/A   Clear
5:15 AM -5.0 °C -12.4 °C -13.0 °C 54% 1030.4 hPa 16.1 km SE 25.9 km/h / 7.2 m/s - N/A   Clear
5:35 AM -5.0 °C -10.1 °C -14.0 °C 50% 1030.7 hPa 16.1 km SSE 13.0 km/h / 3.6 m/s 29.6 km/h / 8.2 m/s N/A   Clear
5:55 AM -4.0 °C -10.9 °C -15.0 °C 43% 1030.4 hPa 16.1 km South 24.1 km/h / 6.7 m/s - N/A   Clear
6:15 AM -4.0 °C -10.9 °C -15.0 °C 43% 1030.4 hPa 16.1 km SSE 24.1 km/h / 6.7 m/s 35.2 km/h / 9.8 m/s N/A   Clear
6:35 AM -4.0 °C -11.1 °C -15.0 °C 43% 1030.4 hPa 16.1 km South 25.9 km/h / 7.2 m/s 35.2 km/h / 9.8 m/s N/A   Clear
6:55 AM -4.0 °C -11.6 °C -15.0 °C 43% 1030.4 hPa 16.1 km SSE 29.6 km/h / 8.2 m/s - N/A   Clear
7:15 AM -4.0 °C -10.9 °C -15.0 °C 43% 1030.4 hPa 16.1 km SSE 24.1 km/h / 6.7 m/s - N/A   Clear
7:35 AM -4.0 °C -11.1 °C -15.0 °C 43% 1030.7 hPa 16.1 km SSE 25.9 km/h / 7.2 m/s - N/A   Clear
7:55 AM -3.0 °C -9.9 °C -16.0 °C 37% 1030.7 hPa 16.1 km SSE 25.9 km/h / 7.2 m/s - N/A   Clear
8:15 AM -3.0 °C -9.1 °C -15.0 °C 40% 1030.4 hPa 16.1 km SE 20.4 km/h / 5.7 m/s - N/A   Clear
8:35 AM -4.0 °C -10.9 °C -14.0 °C 46% 1030.4 hPa 16.1 km SE 24.1 km/h / 6.7 m/s - N/A   Clear
8:55 AM -4.0 °C -10.3 °C -14.0 °C 46% 1030.7 hPa 16.1 km SSE 20.4 km/h / 5.7 m/s - N/A   Clear
9:15 AM -3.0 °C -9.3 °C -13.0 °C 47% 1030.7 hPa 16.1 km SSE 22.2 km/h / 6.2 m/s - N/A   Clear
9:35 AM -3.0 °C -9.3 °C -13.0 °C 47% 1031.0 hPa 16.1 km SSE 22.2 km/h / 6.2 m/s - N/A   Clear
9:55 AM -3.0 °C -9.6 °C -13.0 °C 47% 1030.7 hPa 16.1 km SE 24.1 km/h / 6.7 m/s - N/A   Clear
10:15 AM -3.0 °C -10.1 °C -13.0 °C 47% 1030.4 hPa 16.1 km SE 27.8 km/h / 7.7 m/s - N/A   Clear
10:35 AM -3.0 °C -10.1 °C -12.0 °C 51% 1030.4 hPa 16.1 km SE 27.8 km/h / 7.7 m/s - N/A   Clear
10:55 AM -3.0 °C -9.1 °C -12.0 °C 51% 1031.0 hPa 16.1 km SE 20.4 km/h / 5.7 m/s - N/A   Clear
11:15 AM -2.0 °C -8.1 °C -13.0 °C 43% 1030.4 hPa 16.1 km SE 22.2 km/h / 6.2 m/s - N/A   Clear
11:35 AM -2.0 °C -8.8 °C -12.0 °C 47% 1030.0 hPa 16.1 km SE 27.8 km/h / 7.7 m/s - N/A   Clear
12:15 PM -2.0 °C -7.5 °C -13.0 °C 43% 1029.7 hPa 16.1 km SE 18.5 km/h / 5.1 m/s 33.3 km/h / 9.3 m/s N/A   Clear
12:35 PM -1.0 °C -6.2 °C -13.0 °C 40% 1029.3 hPa 16.1 km SE 18.5 km/h / 5.1 m/s - N/A   Clear
12:55 PM -1.0 °C -5.6 °C -13.0 °C 40% 1029.0 hPa 16.1 km SSE 14.8 km/h / 4.1 m/s - N/A   Clear
1:15 PM -2.0 °C -6.8 °C -13.0 °C 43% 1028.7 hPa 16.1 km SSE 14.8 km/h / 4.1 m/s - N/A   Clear
1:35 PM -2.0 °C -7.8 °C -13.0 °C 43% 1028.0 hPa 16.1 km SE 20.4 km/h / 5.7 m/s - N/A   Clear
1:55 PM -1.0 °C -7.0 °C -13.0 °C 40% 1027.7 hPa 16.1 km SSE 24.1 km/h / 6.7 m/s 31.5 km/h / 8.7 m/s N/A   Clear
2:15 PM -1.0 °C -6.8 °C -14.0 °C 37% 1027.7 hPa 16.1 km SSE 22.2 km/h / 6.2 m/s 35.2 km/h / 9.8 m/s N/A   Clear
2:35 PM 0.0 °C -5.3 °C -15.0 °C 32% 1027.7 hPa 16.1 km SSE 20.4 km/h / 5.7 m/s 27.8 km/h / 7.7 m/s N/A   Clear
2:55 PM 0.0 °C -5.8 °C -15.0 °C 32% 1027.3 hPa 16.1 km SSE 24.1 km/h / 6.7 m/s 33.3 km/h / 9.3 m/s N/A   Clear
3:15 PM 0.0 °C -5.3 °C -15.0 °C 32% 1027.3 hPa 16.1 km SSE 20.4 km/h / 5.7 m/s 27.8 km/h / 7.7 m/s N/A   Clear
3:35 PM 1.0 °C -4.7 °C -15.0 °C 30% 1027.0 hPa 16.1 km SSE 25.9 km/h / 7.2 m/s 37.0 km/h / 10.3 m/s N/A   Clear
3:55 PM 2.0 °C -3.4 °C -15.0 °C 28% 1027.0 hPa 16.1 km SSE 25.9 km/h / 7.2 m/s 38.9 km/h / 10.8 m/s N/A   Clear
4:15 PM 2.0 °C -3.2 °C -14.0 °C 30% 1027.0 hPa 16.1 km SSE 24.1 km/h / 6.7 m/s - N/A   Clear
4:35 PM 2.0 °C -4.1 °C -14.0 °C 30% 1026.6 hPa 16.1 km SSE 33.3 km/h / 9.3 m/s 40.7 km/h / 11.3 m/s N/A   Clear
4:55 PM 2.0 °C -3.6 °C -13.0 °C 33% 1026.6 hPa 16.1 km SSE 27.8 km/h / 7.7 m/s 40.7 km/h / 11.3 m/s N/A   Clear
5:15 PM 2.0 °C -3.4 °C -12.0 °C 35% 1026.6 hPa 16.1 km SSE 25.9 km/h / 7.2 m/s 38.9 km/h / 10.8 m/s N/A   Clear
5:35 PM 1.0 °C -4.3 °C -12.0 °C 38% 1026.3 hPa 16.1 km SSE 22.2 km/h / 6.2 m/s 37.0 km/h / 10.3 m/s N/A   Clear
5:55 PM 1.0 °C -4.7 °C -12.0 °C 38% 1026.6 hPa 16.1 km SSE 25.9 km/h / 7.2 m/s - N/A   Clear
6:15 PM 2.0 °C -2.7 °C -12.0 °C 35% 1026.3 hPa 16.1 km SSE 20.4 km/h / 5.7 m/s 29.6 km/h / 8.2 m/s N/A   Clear
6:35 PM 2.0 °C -2.7 °C -11.0 °C 38% 1026.0 hPa 16.1 km SSE 20.4 km/h / 5.7 m/s 37.0 km/h / 10.3 m/s N/A   Clear
7:15 PM 3.0 °C -3.0 °C -11.0 °C 36% 1025.6 hPa 16.1 km South 35.2 km/h / 9.8 m/s 46.3 km/h / 12.9 m/s N/A   Clear
7:35 PM 2.0 °C -4.1 °C -11.0 °C 38% 1025.6 hPa 16.1 km South 33.3 km/h / 9.3 m/s 42.6 km/h / 11.8 m/s N/A   Clear
7:55 PM 3.0 °C -2.8 °C -10.0 °C 38% 1025.3 hPa 16.1 km South 33.3 km/h / 9.3 m/s 42.6 km/h / 11.8 m/s N/A   Clear
8:15 PM 2.0 °C -2.7 °C -11.0 °C 38% 1025.6 hPa 16.1 km SSE 20.4 km/h / 5.7 m/s 35.2 km/h / 9.8 m/s N/A   Clear
8:35 PM 3.0 °C -3.1 °C -10.0 °C 38% 1025.3 hPa 16.1 km South 37.0 km/h / 10.3 m/s 46.3 km/h / 12.9 m/s N/A   Clear
8:55 PM 3.0 °C -3.0 °C -10.0 °C 38% 1025.3 hPa 16.1 km South 35.2 km/h / 9.8 m/s 42.6 km/h / 11.8 m/s N/A   Clear
9:15 PM 2.0 °C -3.8 °C -11.0 °C 38% 1024.9 hPa 16.1 km South 29.6 km/h / 8.2 m/s 40.7 km/h / 11.3 m/s N/A   Clear
9:35 PM 2.0 °C -4.3 °C -10.0 °C 41% 1024.6 hPa 16.1 km South 35.2 km/h / 9.8 m/s 42.6 km/h / 11.8 m/s N/A   Clear
10:15 PM 2.0 °C -4.1 °C -10.0 °C 41% 1024.6 hPa 16.1 km South 33.3 km/h / 9.3 m/s 44.4 km/h / 12.3 m/s N/A   Clear
10:35 PM 2.0 °C -3.8 °C -10.0 °C 41% 1024.3 hPa 16.1 km South 29.6 km/h / 8.2 m/s 44.4 km/h / 12.3 m/s N/A   Clear
10:55 PM 2.0 °C -3.0 °C -10.0 °C 41% 1024.3 hPa 16.1 km SSE 22.2 km/h / 6.2 m/s 35.2 km/h / 9.8 m/s N/A   Clear
11:15 PM 2.0 °C -4.0 °C -10.0 °C 41% 1023.6 hPa 16.1 km South 31.5 km/h / 8.7 m/s 38.9 km/h / 10.8 m/s N/A   Clear
11:35 PM 1.0 °C -4.9 °C -10.0 °C 44% 1023.2 hPa 16.1 km SSE 27.8 km/h / 7.7 m/s 37.0 km/h / 10.3 m/s N/A   Clear
11:55 PM 1.0 °C -4.5 °C -10.0 °C 44% 1023.2 hPa 16.1 km South 24.1 km/h / 6.7 m/s 35.2 km/h / 9.8 m/s N/A   Clear